Norwood, MA

7:55 AM EDT on August 24, 2017 (GMT -0400)
Norwood Memorial

Weather History for KOWD - November, 2013

Change the Weather History Date:

Tuesday, November 26, 2013

  Actual Average Record
Temperature  
Mean Temperature 38 °F -  
Max Temperature 43 °F 46 °F 66 °F (2001)
Min Temperature 33 °F 27 °F 16 °F (2005)
Degree Days  
Heating Degree Days 27    
Moisture  
Dew Point 25 °F    
Average Humidity 62    
Maximum Humidity 96    
Minimum Humidity 37    
Precipitation  
Precipitation 0.09 in - - ()
Sea Level Pressure  
Sea Level Pressure 30.25 in    
Wind  
Wind Speed 6 mph (SSW)    
Max Wind Speed 13 mph    
Max Gust Speed 18 mph    
Visibility 9 miles    
Events Rain    
Averages and records for this station are not official NWS values.
T = Trace of Precipitation, MM = Missing Value Source: NWS Daily Summary

Daily Weather History Graph

Daily Weather History Graph

Search for Another Location

Airport or City:

Trip Planner

Search our weather history database for the weather conditions in past years. The results will help you decide how hot, cold, wet, or windy it might be!

Date:

Astronomy

Nov. 26, 2013 Rise Set
Actual Time 6:48 AM EST 4:15 PM EST
Civil Twilight 6:17 AM EST 4:46 PM EST
Nautical Twilight 5:42 AM EST 5:20 PM EST
Astronomical Twilight 5:09 AM EST 5:54 PM EST
Moon No Moon Rise 12:27 PM EST (11/26)
Length of Visible Light 10h 28m
Length of Day
9h 27m
Last Quarter, 41% of the Moon is Illuminated
Nov 26
Last Quarter
Dec 2
New
Dec 9
First Quarter
Dec 17
Full
Dec 25
Last Quarter

Hourly Weather History & Observations

Time (EST) Temp. Windchill Dew Point Humidity Pressure Visibility Wind Dir Wind Speed Gust Speed Precip Events Conditions
12:53 AM 33.1 °F 26.1 °F 18.0 °F 54% 30.29 in 10.0 mi SSW 8.1 mph - N/A   Clear
1:53 AM 35.1 °F 27.9 °F 18.0 °F 50% 30.28 in 10.0 mi SSW 9.2 mph - N/A   Partly Cloudy
2:53 AM 35.1 °F 26.4 °F 16.0 °F 46% 30.28 in 10.0 mi SSW 12.7 mph 18.4 mph N/A   Clear
3:53 AM 34.0 °F 27.2 °F 16.0 °F 48% 30.29 in 10.0 mi SW 8.1 mph - N/A   Clear
4:53 AM 34.0 °F 28.8 °F 16.0 °F 48% 30.29 in 10.0 mi SW 5.8 mph - N/A   Clear
5:53 AM 34.0 °F 31.0 °F 16.0 °F 48% 30.31 in 10.0 mi SW 3.5 mph - N/A   Mostly Cloudy
6:53 AM 35.1 °F 32.2 °F 18.0 °F 50% 30.31 in 10.0 mi SSW 3.5 mph - N/A   Overcast
7:53 AM 36.0 °F 30.3 °F 19.9 °F 52% 30.32 in 10.0 mi SSW 6.9 mph - N/A   Overcast
8:53 AM 37.0 °F 32.4 °F 21.0 °F 52% 30.32 in 10.0 mi SW 5.8 mph - N/A   Overcast
9:53 AM 37.9 °F 34.4 °F 21.0 °F 51% 30.33 in 10.0 mi West 4.6 mph - N/A   Overcast
10:53 AM 39.9 °F 34.5 °F 19.9 °F 45% 30.32 in 10.0 mi SW 8.1 mph - N/A   Overcast
11:53 AM 41.0 °F 36.4 °F 21.0 °F 45% 30.30 in 10.0 mi SW 6.9 mph - N/A   Overcast
12:53 PM 42.1 °F 37.1 °F 19.9 °F 41% 30.28 in 10.0 mi SW 8.1 mph - N/A   Overcast
1:53 PM 42.1 °F 38.4 °F 18.0 °F 38% 30.27 in 10.0 mi SW 5.8 mph - N/A   Mostly Cloudy
2:53 PM 43.0 °F 39.5 °F 18.0 °F 37% 30.27 in 10.0 mi SSW 5.8 mph - N/A   Clear
3:53 PM 42.1 °F - 19.0 °F 40% 30.27 in 10.0 mi Calm Calm - N/A   Overcast
4:53 PM 39.0 °F - 23.0 °F 53% 30.27 in 10.0 mi Calm Calm - N/A   Overcast
5:53 PM 37.0 °F 34.5 °F 28.9 °F 73% 30.26 in 10.0 mi SE 3.5 mph - N/A   Overcast
6:53 PM 37.0 °F - 34.0 °F 89% 30.25 in 10.0 mi Calm Calm - N/A   Overcast
7:53 PM 37.0 °F 34.5 °F 35.1 °F 93% 30.23 in 6.0 mi East 3.5 mph - 0.01 in   Overcast
8:53 PM 37.9 °F - 36.0 °F 93% 30.20 in 6.0 mi Calm Calm - 0.00 in   Overcast
9:53 PM 39.0 °F - 37.0 °F 93% 30.15 in 5.0 mi Calm Calm - 0.01 in Rain Light Rain
10:06 PM 39.0 °F - 37.9 °F 96% 30.14 in 5.0 mi Calm Calm - 0.00 in Rain Light Rain
10:26 PM 39.0 °F - 37.9 °F 96% 30.13 in 3.0 mi Calm Calm - 0.02 in Rain Light Rain
10:53 PM 39.0 °F - 37.9 °F 96% 30.10 in 3.0 mi Calm Calm - 0.03 in Rain Light Rain
11:53 PM 42.1 °F - 41.0 °F 96% 30.04 in 5.0 mi Calm Calm - 0.04 in Rain Light Rain